Regional Weather Roundup
Issued by NWS

Home | Current Version | Previous Version | Graphics & Text | Print | Product List | Glossary On
Versions: 1 2 3 4 5 6 7 8 9 10 11 12 13 14 15 16 17 18 19 20 21 22 23 24 25 26 27 28 29 30 31 32 33 34 35 36 37 38 39 40 41 42 43 44 45 46 47 48 49 50
000
ASUS43 KLOT 052110
RWRIL

ILLINOIS REGIONAL WEATHER ROUNDUP
NATIONAL WEATHER SERVICE CHICAGO/ROMEOVILLE IL
300 PM CST THU MAR 05 2015

NOTE: "FAIR" INDICATES FEW OR NO CLOUDS BELOW 12,000 FEET WITH NO
SIGNIFICANT WEATHER AND/OR OBSTRUCTIONS TO VISIBILITY.

* THESE STATIONS ARE NOT UNDER NWS QUALITY CONTROL. THEY ALSO MAY NOT
  REPORT WEATHER SUCH AS PRECIPITATION OR FOG.

ILZ001-002-007-009-015-016-024-052200-
NORTHWEST ILLINOIS

CITY           SKY/WX    TMP DP  RH WIND       PRES   REMARKS
MOLINE         SUNNY     13  -1  54 NW12      30.54F WCI  -1
STERLING*      SUNNY     16   3  57 W13       30.52S WCI   2
SAVANNA*       SUNNY     14  -3  47 W8        30.52F WCI   3
$$

ILZ003-004-008-010-011-017-018-052200-
NORTH CENTRAL ILLINOIS

CITY           SKY/WX    TMP DP  RH WIND       PRES   REMARKS
ROCKFORD       SUNNY     13  -3  49 W8        30.51F WCI   2
FREEPORT*      SUNNY     11  -3  52 W6        30.51S WCI   1
ROCHELLE*      SUNNY     13  -1  54 W8        30.50F WCI   1
DE KALB*       SUNNY     11  -1  58 NW10G18   30.48F WCI  -3
PERU*          SUNNY     15   2  55 W9        30.53S WCI   3
$$

ILZ005-006-012>014-019>023-052200-
NORTHEAST ILLINOIS

CITY           SKY/WX    TMP DP  RH WIND       PRES   REMARKS
CHICAGO-OHARE  SUNNY     15  -2  46 NW13      30.47S WCI   1
CHICAGO-MIDWAY SUNNY     18  -1  43 W8G18     30.49R WCI   8
AURORA         SUNNY     14   1  56 W15       30.50S WCI  -1
LANSING*       SUNNY     19  -2  39 NW6       30.48R WCI  11
JOLIET*        SUNNY     14  -1  51 W12       30.52R WCI   1
WAUKEGAN       SUNNY     15  -5  40 VRB7      30.46F WCI   5
DUPAGE AIRPORT SUNNY     14  -1  51 W9G21     30.47S WCI   2
KANKAKEE*      SUNNY     16   3  55 NW12      30.51R WCI   3
WHEELING       SUNNY     16  -3  43 W13       30.49S WCI   2
MORRIS*        SUNNY     13   2  61 NW10      30.52R WCI   0
ROMEOVILLE*    SUNNY     15   2  56 W13       30.50R WCI   1
NORTHERLY ISL    N/A     19  -3  38 W9          N/A  WCI   8
$$

LMZ740>746-052200-
SOUTHERN LAKE MICHIGAN

STATION/POSITION SKY/WX   TEMP    WIND        PRES    VSBY  WAVE
                          AIR SEA DIR/SP/G                  HT/PER
                          (F)     (DEG/KT/KT) (MB)    (MI)  (FT/S)
WAUKEGAN HARBOR            15                   N/A
HARRISON CRIB              16     260/ 12/ 17   N/A
BURNHAM HARBOR             19     270/ 10/ 12   N/A
CALUMET HARBOR             18     290/  7/ 11 1030.7R
MICHIGAN CITY              18     280/ 11/ 15   N/A
$$

ILZ025>027-034>036-040-047-049-050-058-095>099-052200-
WEST-CENTRAL ILLINOIS

CITY           SKY/WX    TMP DP  RH WIND       PRES   REMARKS
QUINCY         SUNNY     17   2  51 NW9       30.54F WCI   6
GALESBURG*     SUNNY     13   2  64 W8        30.53F WCI   1
MACOMB*        SUNNY     14   3  61 NW9       30.57S WCI   2
JACKSONVILLE*  SUNNY     18   2  50 NW7       30.55F WCI   9
PITTSFIELD*    SUNNY     19   5  54 W5        30.56F WCI  12
$$

ILZ028>032-037-038-041>044-048-051>054-059>061-052200-
CENTRAL ILLINOIS

CITY           SKY/WX    TMP DP  RH WIND       PRES   REMARKS
PONTIAC        SUNNY     14   3  60 W8        30.53S WCI   3
BLOOMINGTON    SUNNY     15   3  59 NW10      30.51S WCI   2
DECATUR        SUNNY     16   2  54 NW13      30.53S WCI   2
PEORIA         SUNNY     16   0  49 NW8       30.54F WCI   5
LACON*         SUNNY     13   0  56 NW9       30.54S WCI   1
LINCOLN*       SUNNY     18   3  51 NW7       30.56S WCI   9
SPRINGFIELD    SUNNY     18   2  49 W9        30.55R WCI   7
TAYLORVILLE    SUNNY     18   5  57 W6        30.54S WCI   9
$$

ILZ033-039-045-046-055>057-062-063-052200-
EAST-CENTRAL ILLINOIS

CITY           SKY/WX    TMP DP  RH WIND       PRES   REMARKS
CHAMPAIGN      SUNNY     15   4  61 NW10      30.51R WCI   2
DANVILLE*      SUNNY     15   2  58 N10       30.49R WCI   2
RANTOUL*       SUNNY     16   4  60 NW15      30.51R WCI   1
MATTOON        SUNNY     16   2  54 NW17      30.52R WCI   0
PARIS*         SUNNY     17   5  59 NW13G21   30.53R WCI   3
$$

ILZ079-100>102-052200-
SOUTHWEST ILLINOIS

CITY           SKY/WX    TMP DP  RH WIND       PRES   REMARKS
ALTON          MOSUNNY   21   1  42 MISG      30.55F
BELLEVILLE     SUNNY     24   8  50 NW7       30.54F WCI  16
CAHOKIA*       SUNNY     26  10  50 N10       30.55S WCI  16
SPARTA*        SUNNY     22   8  54 N8        30.54S WCI  13
$$

ILZ064>066-069>071-074>076-080>082-084>086-088>090-092>094-052200-
SOUTH-CENTRAL ILLINOIS

CITY           SKY/WX    TMP DP  RH WIND       PRES   REMARKS
CARBONDALE     SUNNY     22   5  48 N3        30.55S
CAIRO*         SUNNY     29  11  46 N7        30.53F WCI  22
EFFINGHAM*     SUNNY     19   3  49 W10       30.55R WCI   7
MARION         SUNNY     23   7  50 N12       30.55S WCI  12
MT. VERNON     SUNNY     21   3  45 NW3       30.54S
CENTRALIA*     SUNNY     20   5  51 N12       30.54F WCI   8
SALEM*         SUNNY     21   4  48 NW13      30.55S WCI   9
METROPOLIS*    SUNNY     26   9  47 NW14      30.52R WCI  15
$$

ILZ067-068-072-073-078-083-087-091-052200-
SOUTHEAST ILLINOIS

CITY           SKY/WX    TMP DP  RH WIND       PRES   REMARKS
LAWRENCEVILLE  SUNNY     22   4  46 NW15      30.53R WCI   9
FLORA*         SUNNY     20   4  51 NW9       30.55R WCI   9
FAIRFIELD*     SUNNY     21   5  50 N12       30.53R WCI   9
HARRISBURG*    SUNNY     23   6  48 N8        30.54S WCI  13
ROBINSON*      SUNNY     19   5  54 NW13      30.54R WCI   6
CARMI*         SUNNY     24  10  57 N15       30.53R WCI  11
$$

ABBREVIATIONS USED IN REMARKS
   TC - TEMPERATURE IN CELSIUS
  WCI - WIND CHILL INDEX
   HX - HEAT INDEX
  VSB - VISIBILITY
$$



USA.gov is the U.S. government's official web portal to all federal, state and local government web resources and services.